Date String (YYYY-MM-DD hh:mm:ss) UTC,Instrument flags,Ambient pressure (hPa),Sample flow (lpm),Bypass flow (lpm),Sample temperature (°C),Ambient temperature (°C),ASC tube jacket temperature (°C),LED temperature (°C),Box temperature (°C),Sample RH (%),Span deviation,Mass concentration (μg/m³),Mass concentration (μg/m³),Mass concentration (μg/m³)
DateTimeUTC,F1_M11,P_M11,Q1_M11,Q2_M11,T1_M11,T2_M11,T3_M11,T4_M11,T5_M11,U1_M11,ZSPAN_M11,X0_M11,X2_M11,X1_M11
2022-02-11 23:00:00,,0830.2,4.99,0.00,21.7,21.0,00.0,30.7,23.3,16.5,0000.0,0003.00,0001.30,0000.91
2022-02-11 23:01:00,,0830.1,5.01,0.00,21.7,21.5,00.0,30.7,23.5,16.5,0000.0,0002.87,0001.27,0000.93
2022-02-11 23:02:00,,0830.2,4.99,0.00,21.9,22.3,00.0,30.8,23.8,16.4,0000.0,0002.83,0001.26,0000.93
2022-02-11 23:03:00,,0830.2,5.01,0.00,22.0,22.8,00.0,30.8,24.0,16.2,0000.0,0002.76,0001.27,0000.93
2022-02-11 23:04:00,,0830.1,4.99,0.00,22.1,22.7,00.0,30.8,24.1,16.2,0000.0,0002.86,0001.29,0000.94
2022-02-11 23:05:00,,0830.1,4.99,0.00,22.1,22.4,00.0,30.9,24.0,16.1,0000.0,0002.93,0001.31,0000.95
2022-02-11 23:06:00,,0830.1,5.00,0.00,22.1,22.3,00.0,30.9,24.0,16.1,0000.0,0002.88,0001.29,0000.94
2022-02-11 23:07:00,,0830.1,5.02,0.00,22.1,22.1,00.0,30.9,23.9,16.1,0000.0,0002.81,0001.27,0000.93
2022-02-11 23:08:00,,0830.1,4.99,0.00,22.1,21.9,00.0,30.9,23.9,16.0,0000.0,0002.43,0001.22,0000.92
2022-02-11 23:09:00,,0830.0,5.00,0.00,22.1,21.8,00.0,30.9,23.8,16.0,0000.0,0002.02,0001.18,0000.90
2022-02-11 23:10:00,,0830.1,5.00,0.00,22.0,21.7,00.0,30.9,23.8,16.0,0000.0,0001.91,0001.13,0000.87
2022-02-11 23:11:00,,0830.1,4.99,0.00,22.0,21.6,00.0,30.9,23.8,16.0,0000.0,0001.91,0001.11,0000.85
2022-02-11 23:12:00,,0830.1,4.97,0.00,22.0,21.5,00.0,30.9,23.8,16.0,0000.0,0002.08,0001.16,0000.84
2022-02-11 23:13:00,,0830.2,5.00,0.00,22.0,21.5,00.0,30.9,23.8,16.1,0000.0,0002.13,0001.17,0000.82
2022-02-11 23:14:00,,0830.2,5.00,0.00,22.0,21.4,00.0,30.9,23.7,16.1,0000.0,0002.17,0001.15,0000.80
2022-02-11 23:15:00,,0830.4,4.99,0.00,22.0,21.4,00.0,30.9,23.7,16.1,0000.0,0002.10,0001.14,0000.80
2022-02-11 23:16:00,,0830.4,4.99,0.00,22.0,21.4,00.0,30.9,23.7,16.0,0000.0,0002.04,0001.11,0000.79
2022-02-11 23:17:00,,0830.3,5.01,0.00,22.0,21.4,00.0,30.9,23.7,16.0,0000.0,0002.13,0001.13,0000.78
2022-02-11 23:18:00,,0830.4,5.00,0.00,21.9,21.3,00.0,30.9,23.6,16.0,0000.0,0002.13,0001.13,0000.76
2022-02-11 23:19:00,,0830.4,5.01,0.00,21.9,21.3,00.0,30.9,23.6,16.0,0000.0,0002.10,0001.12,0000.75
2022-02-11 23:20:00,,0830.4,5.01,0.00,21.9,21.2,00.0,30.9,23.6,16.0,0000.0,0002.03,0001.09,0000.74
2022-02-11 23:21:00,,0830.4,5.00,0.00,21.9,21.2,00.0,30.9,23.5,16.0,0000.0,0002.02,0001.09,0000.74
2022-02-11 23:22:00,,0830.4,5.01,0.00,21.8,21.2,00.0,30.9,23.5,16.0,0000.0,0001.98,0001.07,0000.73
2022-02-11 23:23:00,,0830.4,4.99,0.00,21.8,21.2,00.0,30.9,23.5,15.9,0000.0,0001.88,0001.03,0000.72
2022-02-11 23:24:00,,0830.4,5.01,0.00,21.8,21.2,00.0,30.9,23.5,16.0,0000.0,0001.79,0000.99,0000.71
2022-02-11 23:25:00,,0830.4,4.99,0.00,21.8,21.2,00.0,30.9,23.5,16.0,0000.0,0001.87,0001.00,0000.72
2022-02-11 23:26:00,,0830.4,5.00,0.00,21.8,21.2,00.0,30.9,23.5,16.0,0000.0,0001.78,0000.96,0000.71
2022-02-11 23:27:00,,0830.4,5.00,0.00,21.8,21.2,00.0,30.9,23.5,16.0,0000.0,0001.71,0000.93,0000.70
2022-02-11 23:28:00,,0830.4,5.00,0.00,21.8,21.1,00.0,30.8,23.5,15.9,0000.0,0001.60,0000.89,0000.69
2022-02-11 23:29:00,,0830.3,5.01,0.00,21.7,21.1,00.0,30.8,23.4,16.0,0000.0,0001.58,0000.88,0000.69
2022-02-11 23:30:00,,0830.4,4.99,0.00,21.7,21.0,00.0,30.8,23.3,15.9,0000.0,0001.51,0000.85,0000.68
2022-02-11 23:31:00,,0830.3,5.00,0.00,21.7,20.9,00.0,30.8,23.3,15.9,0000.0,0001.54,0000.85,0000.66
2022-02-11 23:32:00,,0830.3,5.01,0.00,21.6,20.9,00.0,30.8,23.2,15.8,0000.0,0001.64,0000.87,0000.65
2022-02-11 23:33:00,,0830.4,5.00,0.00,21.7,21.4,00.0,30.8,23.4,15.8,0000.0,0001.61,0000.85,0000.63
2022-02-11 23:34:00,,0830.5,5.00,0.00,21.8,22.3,00.0,30.8,23.7,15.6,0000.0,0001.63,0000.85,0000.62
2022-02-11 23:35:00,,0830.5,4.99,0.00,22.0,22.9,00.0,30.9,24.0,15.6,0000.0,0001.62,0000.86,0000.61
2022-02-11 23:36:00,,0830.5,5.01,0.00,22.1,22.7,00.0,30.9,24.0,15.5,0000.0,0001.43,0000.82,0000.59
2022-02-11 23:37:00,,0830.5,5.00,0.00,22.1,22.5,00.0,30.9,24.0,15.5,0000.0,0001.76,0000.79,0000.58
2022-02-11 23:38:00,,0830.4,5.00,0.00,22.1,22.3,00.0,30.9,24.0,15.5,0000.0,0002.24,0000.79,0000.57
2022-02-11 23:39:00,,0830.3,5.00,0.00,22.1,22.1,00.0,30.9,23.9,15.5,0000.0,0002.23,0000.79,0000.56
2022-02-11 23:40:00,,0830.4,5.00,0.00,22.1,22.0,00.0,30.9,23.9,15.5,0000.0,0002.22,0000.78,0000.55
2022-02-11 23:41:00,,0830.4,5.00,0.00,22.1,21.8,00.0,30.9,23.9,15.5,0000.0,0002.28,0000.81,0000.55
2022-02-11 23:42:00,,0830.3,5.01,0.00,22.1,21.7,00.0,31.0,23.8,15.5,0000.0,0002.37,0000.85,0000.56
2022-02-11 23:43:00,,0830.3,4.99,0.00,22.0,21.7,00.0,31.0,23.8,15.5,0000.0,0002.29,0000.82,0000.56
2022-02-11 23:44:00,,0830.1,4.99,0.00,22.0,21.6,00.0,31.0,23.8,15.5,0000.0,0002.30,0000.85,0000.57
2022-02-11 23:45:00,,0830.1,5.01,0.00,22.0,21.6,00.0,31.0,23.9,15.5,0000.0,0002.23,0000.83,0000.57
2022-02-11 23:46:00,,0830.2,5.00,0.00,22.0,21.6,00.0,31.0,23.8,15.5,0000.0,0002.18,0000.80,0000.58
2022-02-11 23:47:00,,0830.2,4.99,0.00,22.0,21.5,00.0,31.0,23.8,15.5,0000.0,0002.20,0000.81,0000.58
2022-02-11 23:48:00,,0830.2,5.01,0.00,22.0,21.5,00.0,31.0,23.8,15.5,0000.0,0001.92,0000.83,0000.58
2022-02-11 23:49:00,,0830.4,4.99,0.00,22.0,21.5,00.0,31.0,23.8,15.5,0000.0,0001.37,0000.82,0000.58
2022-02-11 23:50:00,,0830.4,5.01,0.00,22.0,21.5,00.0,31.0,23.8,15.5,0000.0,0001.36,0000.82,0000.58
2022-02-11 23:51:00,,0830.6,5.01,0.00,22.0,21.4,00.0,31.0,23.8,15.6,0000.0,0001.67,0000.82,0000.59
2022-02-11 23:52:00,,0830.6,5.00,0.00,22.0,21.4,00.0,31.0,23.7,15.6,0000.0,0002.09,0000.83,0000.59
2022-02-11 23:53:00,,0830.6,4.99,0.00,22.0,21.3,00.0,31.0,23.7,15.6,0000.0,0002.02,0000.80,0000.59
2022-02-11 23:54:00,,0830.6,5.00,0.00,21.9,21.2,00.0,31.0,23.6,15.6,0000.0,0002.02,0000.79,0000.58
2022-02-11 23:55:00,,0830.5,4.99,0.00,21.9,21.2,00.0,30.9,23.5,15.6,0000.0,0001.88,0000.72,0000.57
2022-02-11 23:56:00,,0830.6,4.99,0.00,21.8,21.1,00.0,30.9,23.5,15.7,0000.0,0001.94,0000.75,0000.56
2022-02-11 23:57:00,,0830.6,5.01,0.00,21.8,21.0,00.0,30.9,23.4,15.7,0000.0,0001.97,0000.76,0000.56
2022-02-11 23:58:00,,0830.8,4.99,0.00,21.8,21.0,00.0,30.9,23.4,15.7,0000.0,0002.02,0000.78,0000.55
2022-02-11 23:59:00,,0830.7,5.01,0.00,21.7,20.9,00.0,30.9,23.4,15.7,0000.0,0002.04,0000.78,0000.54
